Location: Rumah Apan
(2.7833°N, 113.9500°E)
Time: 16:58:44
(UTC+00:00)

Cosmos 1455 - Pass Details

Date: 25 July 2021
Orbit: 498 x 519 km, 82.5° (Epoch: 17 September)

Event Time Altitude Azimuth Distance (km) Brightness Sun altitude
Rises 11:04:40 0° 354° (N) 2,581 6.1 -7.0°
Reaches altitude 10° 11:06:46 10° 354° (N) 1,703 5.2 -7.5°
Maximum altitude 11:10:30 81° 267° (W) 514 2.2 -8.4°
Drops below altitude 10° 11:14:16 10° 179° (S) 1,722 4.6 -9.3°
Sets 11:16:24 0° 178° (S) 2,613 5.5 -9.8°
